sat.trackr.live / text

‹ back to catalog

STARLINK-5928

NORAD 55958 · 2023-037AW

PAYLOAD ACTIVE UNKNOWN

§ Identity

Operator
Country
US
Launch date
2023-03-17
Launch site
AFWTR
Launch vehicle
Mass (kg)
RCS (m²)

Purposes: comms

External: N2YO · Heavens-Above · Gunter

§ Orbital elements

Epoch: 2026-09-20T07:12:15.152832Z

Period
96.11 min
Inclination
69.9984°
Eccentricity
0.0002583
Mean motion
14.98312583 rev/d
Perigee alt
570.3 km
Apogee alt
573.9 km
Semi-major
6,950.2 km
B*
-1.1665e-4
RAAN
133.7853°
Arg perigee
267.5907°
Mean anomaly
92.4956°
Rev number
19,362

§ Raw data

STARLINK-59281 55958U 23037AW  26263.30017538 -.00001484  00000+0 -11665-3 0  99932 55958  69.9984 133.7853 0002583 267.5907  92.4956 14.98312583193623

JSON: /api/v1/satellites/55958 · /tle

For live sub-satellite position, see the globe view (requires WebGL).

§ Visibility from observer

Set your observer location to see the next 7 days of passes ≥ 10°. The values pass through the URL so the page stays shareable.

No JS? Fill the form by hand. The geolocation button needs JavaScript.